This is the latest recevied weather packets stored in our database for station/object KC9NPJ-13. If no packets are shown the sender has not sent any weather packets the latest 10 day(s).
| Time | Temp. | Humidity | Pressure | Rain* | Wind** | Luminosity | Snow |
|---|---|---|---|---|---|---|---|
| 1777884846 | 12.22° C | 91% | 1010.8 hPa | 0.25 mm | - | - | - |
| 1777884546 | 12.22° C | 90% | 1010.8 hPa | 0.25 mm | - | - | - |
| 1777884246 | 12.78° C | 90% | 1010.9 hPa | 0.25 mm | - | - | - |
| 1777883946 | 12.78° C | 90% | 1010.9 hPa | 0.51 mm | - | - | - |
| 1777883646 | 12.78° C | 90% | 1011.1 hPa | 0.51 mm | - | - | - |
| 1777883346 | 12.78° C | 90% | 1011.5 hPa | 0.76 mm | - | - | - |
| 1777883046 | 12.78° C | 90% | 1011.7 hPa | 0.76 mm | - | - | - |
| 1777882746 | 12.78° C | 90% | 1012.1 hPa | 0.51 mm | - | - | - |
| 1777882446 | 12.78° C | 90% | 1012.1 hPa | 0.51 mm | - | - | - |
| 1777882146 | 12.78° C | 89% | 1012.6 hPa | 0.51 mm | - | - | - |
| 1777881846 | 12.78° C | 88% | 1012.3 hPa | 0.51 mm | - | - | - |
| 1777881546 | 13.33° C | 87% | 1012.6 hPa | 0.51 mm | - | - | - |
| 1777881246 | 13.33° C | 85% | 1011.9 hPa | 0.51 mm | - | - | - |
| 1777880946 | 13.33° C | 85% | 1010.7 hPa | 0.51 mm | - | - | - |
| 1777880647 | 13.89° C | 84% | 1011 hPa | 0.51 mm | - | - | - |
| 1777880347 | 13.89° C | 83% | 1011.2 hPa | 0.25 mm | - | - | - |
| 1777880047 | 14.44° C | 81% | 1011.2 hPa | 0.25 mm | - | - | - |
| 1777879746 | 14.44° C | 80% | 1012.3 hPa | 0 mm | - | - | - |
| 1777879447 | 14.44° C | 80% | 1012.5 hPa | 0 mm | - | - | - |
| 1777879147 | 13.89° C | 79% | 1012.7 hPa | 0 mm | - | - | - |
| 1777878847 | 13.89° C | 78% | 1012.7 hPa | 0 mm | - | - | - |
| 1777878547 | 13.33° C | 78% | 1013.1 hPa | 0 mm | - | - | - |
| 1777878247 | 12.78° C | 82% | 1011.4 hPa | 0 mm | - | - | - |
| 1777877947 | 12.78° C | 80% | 1011.1 hPa | 0 mm | - | - | - |
| 1777877647 | 12.22° C | 79% | 1011 hPa | 0 mm | - | - | - |
* Rain latest hour (hover to see other rain measurements)
** Current wind speed in m/s (hover to see current wind gust speed)